This demonstration page uses our WeatherBlox Daily Observations layout. Learn more.

Left ArrowRight Arrow

41.55636, -103.73856

Hourly Observations for December 21, 2018

Temp ( °F °C ) Dew Point ( °F °C ) Humidity (%) Winds ( mph kmh ) Pressure ( in mb ) Visibility ( mi km ) Precip ( " mm )
12:58 am 00:58 Clear 27 -2.9 16 -8.8 64 64 WSW 13 20 30.09 1019 10 16 N/A
1:58 am 01:58 Clear 26 -3.2 15 -9.3 63 63 W 7 11 30.06 1018 10 16 N/A
2:58 am 02:58 Clear 29 -1.6 15 -9.7 54 54 WSW 14 22 29.94 1014 10 16 N/A
3:58 am 03:58 Clear 24 -4.5 15 -9.7 67 67 WSW 8 13 29.97 1015 10 16 N/A
4:58 am 04:58 Clear 26 -3.1 15 -9.3 63 63 WSW 6 9 29.85 1011 10 16 N/A
5:58 am 05:58 Clear 30 -1 16 -9 55 55 WSW 8 13 29.84 1010 10 16 N/A
6:58 am 06:58 Partly Cloudy 31 -0.8 17 -8.3 57 57 WSW 7 11 29.80 1009 10 16 N/A
7:58 am 07:58 Mostly Cloudy 33 0.6 17 -8.3 52 52 SW 7 11 29.80 1009 10 16 N/A
8:58 am 08:58 Mostly Cloudy 35 1.8 17 -8.4 47 47 W 12 19 29.80 1009 10 16 N/A
9:58 am 09:58 Mostly Cloudy 47 8.4 17 -8.3 30 30 W 14 22 29.77 1008 10 16 N/A
10:58 am 10:58 Partly Cloudy 49 9.2 19 -7.2 31 31 NNW 10 17 29.75 1008 10 16 N/A
11:58 am 11:58 Partly Cloudy 49 9.6 18 -8 28 28 NW 22 35 29.72 1006 10 16 N/A
12:58 pm 12:58 Sunny 51 10.4 21 -6.3 31 31 NW 24 39 29.72 1006 10 16 N/A
1:58 pm 13:58 Mostly Sunny 49 9.5 21 -6 33 33 N 15 24 29.78 1008 10 16 N/A
2:58 pm 14:58 Mostly Sunny 47 8.1 23 -5.2 39 39 NW 24 39 29.79 1009 10 16 N/A
3:58 pm 15:58 Sunny 46 7.8 21 -6 37 37 WNW 32 52 29.81 1010 10 16 N/A
4:58 pm 16:58 Clear 43 5.9 22 -5.7 43 43 NW 32 52 29.79 1009 10 16 N/A
5:58 pm 17:58 Clear 42 5.4 20 -6.4 43 43 NW 25 41 29.82 1010 10 16 N/A
6:58 pm 18:58 Clear 40 4.3 21 -6.1 47 47 NNW 17 28 29.83 1010 10 16 N/A
7:58 pm 19:58 Clear 38 3.2 22 -5.5 53 53 N 12 19 29.84 1011 10 16 N/A
8:58 pm 20:58 Mostly Cloudy 35 1.6 21 -5.9 58 58 N 8 13 29.85 1011 10 16 N/A
9:58 pm 21:58 Mostly Cloudy 30 -1.1 22 -5.4 73 73 NE 5 7 29.84 1011 10 16 N/A
10:58 pm 22:58 Mostly Cloudy 29 -1.7 22 -5.3 77 77 N 8 13 29.88 1012 10 16 N/A
11:58 pm 23:58 Mostly Cloudy 27 -2.6 23 -5.2 83 83 N 7 11 29.88 1012 10 16 N/A

Powered by AerisWeather